When you browse on this site, cookies collect data to enhance your experience and personalize the content and advertising you see.
Visit our Privacy Policy to learn more. By continuing to use the site, you agree to this use of cookies and data.
  • In Latvia
  • List of Countries
  • For 7 days
  • Water Temperature
  • Weather Map
  • Weather Widgets
  • user-avatar
    Login

    Hourly Weather Top

    Today, 18 September, Wednesday

    Time Temperature Precipitation Wind Pressure Humidity
    00:00 +21°C° 0 mm 1 mps 682 mmHg 94%
    01:00 +21°C° 0 mm 1 mps 681 mmHg 94%
    02:00 +21°C° 0 mm 1 mps 681 mmHg 94%
    03:00 +20°C° 0 mm 1 mps 681 mmHg 94%
    04:00 +18°C° 0 mm 0 mps 681 mmHg 93%
    05:00 +19°C° 0 mm 0 mps 681 mmHg 90%
    06:00 +20°C° 0 mm 0 mps 682 mmHg 87%
    07:00 +21°C° 0 mm 0 mps 682 mmHg 82%
    08:00 +23°C° 0 mm 0 mps 683 mmHg 74%
    09:00 +27°C° 0 mm 1 mps 683 mmHg 66%
    10:00 +29°C° 0 mm 1 mps 684 mmHg 58%
    11:00 +29°C° 0.5 mm 1 mps 683 mmHg 62%
    12:00 +29°C° 0.5 mm 1 mps 682 mmHg 65%
    13:00 +29°C° 0 mm 1 mps 682 mmHg 69%
    14:00 +28°C° 0.7 mm 1 mps 682 mmHg 74%
    15:00 +28°C° 0.7 mm 1 mps 681 mmHg 79%
    16:00 +27°C° 0.7 mm 1 mps 681 mmHg 84%
    17:00 +25°C° 0.3 mm 1 mps 681 mmHg 88%
    18:00 +24°C° 0.3 mm 1 mps 681 mmHg 92%
    19:00 +22°C° 0.3 mm 1 mps 682 mmHg 96%
    20:00 +22°C° 0 mm 1 mps 682 mmHg 96%
    21:00 +21°C° 0 mm 1 mps 682 mmHg 96%
    22:00 +21°C° 0 mm 1 mps 683 mmHg 96%
    23:00 +21°C° 0 mm 1 mps 682 mmHg 96%

    Tomorrow, 19 September, Thursday

    Time Temperature Precipitation Wind Pressure Humidity
    00:00 +21°C° 0 mm 1 mps 682 mmHg 97%
    01:00 +21°C° 0 mm 1 mps 682 mmHg 97%
    02:00 +21°C° 0 mm 1 mps 682 mmHg 96%
    03:00 +19°C° 0 mm 0 mps 682 mmHg 96%
    04:00 +19°C° 0 mm 0 mps 682 mmHg 95%
    05:00 +19°C° 0 mm 0 mps 682 mmHg 93%
    06:00 +20°C° 0 mm 0 mps 683 mmHg 90%
    07:00 +21°C° 0 mm 0 mps 683 mmHg 88%
    08:00 +23°C° 0.1 mm 0 mps 684 mmHg 80%
    09:00 +25°C° 0.1 mm 0 mps 684 mmHg 72%
    10:00 +29°C° 0.1 mm 1 mps 685 mmHg 64%
    11:00 +28°C° 1.6 mm 1 mps 684 mmHg 71%
    12:00 +26°C° 1.6 mm 0 mps 683 mmHg 77%
    13:00 +26°C° 1.6 mm 0 mps 682 mmHg 84%
    14:00 +24°C° 1.8 mm 0 mps 682 mmHg 88%
    15:00 +23°C° 1.8 mm 0 mps 681 mmHg 93%
    16:00 +24°C° 1.8 mm 1 mps 681 mmHg 97%
    17:00 +23°C° 1.1 mm 1 mps 681 mmHg 97%
    18:00 +23°C° 1.1 mm 1 mps 681 mmHg 97%
    19:00 +22°C° 1.1 mm 1 mps 682 mmHg 98%
    20:00 +22°C° 0.7 mm 1 mps 682 mmHg 98%
    21:00 +22°C° 0.7 mm 1 mps 683 mmHg 98%
    22:00 +20°C° 0.7 mm 0 mps 683 mmHg 98%
    23:00 +20°C° 0.1 mm 0 mps 683 mmHg 98%

    Day after tomorrow, 20 September, Friday

    Time Temperature Precipitation Wind Pressure Humidity
    00:00 +19°C° 0.1 mm 0 mps 682 mmHg 98%
    01:00 +19°C° 0.1 mm 0 mps 682 mmHg 98%
    02:00 +19°C° 0.2 mm 0 mps 682 mmHg 98%
    03:00 +19°C° 0.2 mm 0 mps 682 mmHg 98%
    04:00 +19°C° 0.2 mm 0 mps 681 mmHg 98%
    05:00 +19°C° 0.2 mm 0 mps 682 mmHg 98%
    06:00 +20°C° 0.2 mm 0 mps 682 mmHg 97%
    07:00 +20°C° 0.2 mm 0 mps 683 mmHg 97%
    08:00 +22°C° 0.3 mm 0 mps 683 mmHg 88%
    09:00 +24°C° 0.3 mm 0 mps 683 mmHg 79%
    10:00 +28°C° 0.3 mm 1 mps 684 mmHg 70%
    11:00 +28°C° 2 mm 1 mps 683 mmHg 76%
    12:00 +27°C° 2 mm 1 mps 682 mmHg 82%
    13:00 +25°C° 2 mm 0 mps 681 mmHg 89%
    14:00 +24°C° 2 mm 0 mps 681 mmHg 91%
    15:00 +26°C° 2 mm 1 mps 681 mmHg 93%
    16:00 +25°C° 2 mm 1 mps 680 mmHg 95%
    17:00 +24°C° 1 mm 1 mps 680 mmHg 96%
    18:00 +23°C° 1 mm 1 mps 681 mmHg 97%
    19:00 +22°C° 1 mm 1 mps 681 mmHg 98%
    20:00 +22°C° 0.3 mm 1 mps 681 mmHg 98%
    21:00 +22°C° 0.3 mm 1 mps 682 mmHg 98%
    22:00 +22°C° 0.3 mm 1 mps 682 mmHg 98%
    23:00 +21°C° 0.3 mm 1 mps 682 mmHg 98%

    21 September, Saturday

    Time Temperature Precipitation Wind Pressure Humidity
    00:00 +21°C° 0.3 mm 1 mps 682 mmHg 98%
    01:00 +21°C° 0.3 mm 1 mps 681 mmHg 98%
    02:00 +21°C° 0.2 mm 1 mps 681 mmHg 98%
    03:00 +20°C° 0.2 mm 1 mps 681 mmHg 98%
    04:00 +20°C° 0.2 mm 1 mps 681 mmHg 98%
    05:00 +20°C° 0 mm 1 mps 681 mmHg 96%
    06:00 +21°C° 0 mm 1 mps 682 mmHg 94%
    07:00 +19°C° 0 mm 0 mps 682 mmHg 93%
    08:00 +24°C° 0 mm 1 mps 683 mmHg 81%
    09:00 +26°C° 0 mm 1 mps 683 mmHg 68%
    10:00 +29°C° 0 mm 1 mps 684 mmHg 56%
    11:00 +28°C° 0.7 mm 1 mps 683 mmHg 64%
    12:00 +28°C° 0.7 mm 1 mps 683 mmHg 72%
    13:00 +27°C° 0.7 mm 1 mps 682 mmHg 80%
    14:00 +26°C° 1.6 mm 1 mps 682 mmHg 85%
    15:00 +25°C° 1.6 mm 1 mps 681 mmHg 90%
    16:00 +24°C° 1.6 mm 1 mps 681 mmHg 95%
    17:00 +23°C° 1.7 mm 1 mps 681 mmHg 96%
    18:00 +22°C° 1.7 mm 1 mps 681 mmHg 96%
    19:00 +21°C° 1.7 mm 1 mps 682 mmHg 97%
    20:00 +20°C° 1.3 mm 1 mps 682 mmHg 98%
    21:00 +20°C° 1.3 mm 1 mps 683 mmHg 98%
    22:00 +20°C° 1.3 mm 1 mps 683 mmHg 98%
    23:00 +20°C° 0.1 mm 1 mps 683 mmHg 97%

    22 September, Sunday

    Time Temperature Precipitation Wind Pressure Humidity
    00:00 +19°C° 0.1 mm 1 mps 683 mmHg 97%
    01:00 +19°C° 0.1 mm 1 mps 683 mmHg 96%
    02:00 +19°C° 0.1 mm 1 mps 683 mmHg 96%
    03:00 +19°C° 0.1 mm 1 mps 682 mmHg 96%
    04:00 +18°C° 0.1 mm 1 mps 682 mmHg 95%
    05:00 +19°C° 0 mm 1 mps 683 mmHg 94%
    06:00 +19°C° 0 mm 1 mps 683 mmHg 93%
    07:00 +20°C° 0 mm 1 mps 684 mmHg 91%
    08:00 +22°C° 0 mm 1 mps 685 mmHg 79%
    09:00 +25°C° 0 mm 1 mps 685 mmHg 66%
    10:00 +28°C° 0 mm 1 mps 686 mmHg 53%
    11:00 +29°C° 0 mm 1 mps 686 mmHg 51%
    12:00 +29°C° 0 mm 1 mps 685 mmHg 48%
    13:00 +30°C° 0 mm 2 mps 685 mmHg 45%
    14:00 +29°C° 0 mm 2 mps 684 mmHg 52%
    15:00 +28°C° 0 mm 2 mps 684 mmHg 58%
    16:00 +27°C° 0 mm 1 mps 684 mmHg 64%
    17:00 +25°C° 0.1 mm 1 mps 684 mmHg 74%
    18:00 +23°C° 0.1 mm 1 mps 684 mmHg 83%
    19:00 +20°C° 0.1 mm 1 mps 684 mmHg 92%
    20:00 +20°C° 0 mm 1 mps 684 mmHg 92%
    21:00 +19°C° 0 mm 1 mps 685 mmHg 91%
    22:00 +19°C° 0 mm 1 mps 685 mmHg 90%
    23:00 +18°C° 0 mm 1 mps 685 mmHg 88%

    23 September, Monday

    Time Temperature Precipitation Wind Pressure Humidity
    00:00 +18°C° 0 mm 1 mps 684 mmHg 86%
    01:00 +18°C° 0 mm 1 mps 684 mmHg 84%
    02:00 +16°C° 0 mm 1 mps 684 mmHg 83%
    03:00 +16°C° 0 mm 1 mps 684 mmHg 82%
    04:00 +16°C° 0 mm 1 mps 683 mmHg 81%
    05:00 +18°C° 0 mm 1 mps 684 mmHg 79%
    06:00 +19°C° 0 mm 1 mps 685 mmHg 76%
    07:00 +20°C° 0 mm 1 mps 685 mmHg 74%
    08:00 +23°C° 0 mm 1 mps 686 mmHg 67%
    09:00 +25°C° 0 mm 1 mps 686 mmHg 59%
    10:00 +28°C° 0 mm 1 mps 687 mmHg 51%
    11:00 +29°C° 0 mm 1 mps 686 mmHg 51%
    12:00 +29°C° 0 mm 2 mps 686 mmHg 51%
    13:00 +30°C° 0 mm 2 mps 685 mmHg 50%
    14:00 +29°C° 0 mm 2 mps 685 mmHg 55%
    15:00 +28°C° 0 mm 2 mps 684 mmHg 60%
    16:00 +27°C° 0 mm 2 mps 684 mmHg 64%
    17:00 +25°C° 0 mm 2 mps 684 mmHg 71%
    18:00 +23°C° 0 mm 2 mps 684 mmHg 78%
    19:00 +20°C° 0 mm 2 mps 684 mmHg 85%
    20:00 +20°C° 0 mm 2 mps 684 mmHg 87%
    21:00 +21°C° 0 mm 1 mps 685 mmHg 88%
    22:00 +20°C° 0 mm 1 mps 685 mmHg 90%
    23:00 +20°C° 0 mm 1 mps 685 mmHg 91%
    Show more